FW6253 Weather Reports


Display with metric or nautical units.
time (UTC)temp
F
wind
direction
speed
MPH
gust
MPH
rain 1hr
in
rain 24hr
in
rain mn
in
humidity
%
barometer
mb
20260505011052 76 190 2.0 12.0 0.00 0.00 0.00 71 1008.8
20260505010552 77 207 5.0 12.0 0.00 0.00 0.00 70 1008.8
20260505010108 77 192 4.0 9.0 0.00 0.00 0.00 70 1008.8
20260505005552 77 221 3.0 9.0 0.00 0.00 0.00 70 1008.9
20260505005052 77 191 2.0 7.0 0.00 0.00 0.00 70 1008.8
20260505004602 77 182 2.0 10.0 0.00 0.00 0.00 69 1008.8
20260505004051 77 161 3.0 11.0 0.00 0.00 0.00 69 1008.7
20260505003551 77 247 4.0 11.0 0.00 0.00 0.00 68 1008.6
20260505003055 78 152 3.0 11.0 0.00 0.00 0.00 68 1008.6
20260505002550 78 117 3.0 13.0 0.00 0.00 0.00 68 1008.7
20260505002051 78 187 5.0 13.0 0.00 0.00 0.00 67 1008.7
20260505001552 78 202 3.0 12.0 0.00 0.00 0.00 67 1008.8
20260505001051 78 196 4.0 12.0 0.00 0.00 0.00 67 1008.7
20260505000555 78 168 3.0 10.0 0.00 0.00 0.00 67 1008.7
20260505000112 78 159 4.0 10.0 0.00 0.00 0.00 66 1008.8
20260504235554 78 185 2.0 12.0 0.00 0.00 0.00 66 1008.9
20260504235054 78 150 3.0 12.0 0.00 0.00 0.00 66 1009.1
20260504234554 79 190 6.0 12.0 0.00 0.00 0.00 65 1008.9
20260504234053 79 182 4.0 12.0 0.00 0.00 0.00 65 1009.1
20260504233554 79 162 4.0 12.0 0.00 0.00 0.00 65 1009.1
20260504233053 79 155 2.0 12.0 0.00 0.00 0.00 66 1009.4
20260504232554 79 202 3.0 12.0 0.00 0.00 0.00 66 1009.3
20260504232054 79 168 5.0 12.0 0.00 0.00 0.00 65 1009.4
20260504231621 79 169 3.0 9.0 0.00 0.00 0.00 65 1009.5
20260504231053 79 207 3.0 14.0 0.00 0.00 0.00 65 1009.6
20260504230555 79 200 5.0 14.0 0.00 0.00 0.00 65 1009.6
20260504230051 79 186 5.0 12.0 0.00 0.00 0.00 65 1009.6
20260504225556 79 167 3.0 19.0 0.00 0.00 0.00 65 1009.7
20260504225054 79 218 7.0 19.0 0.00 0.00 0.00 64 1009.8
20260504224552 79 196 4.0 11.0 0.00 0.00 0.00 64 1010.0
20260504224051 79 210 5.0 11.0 0.00 0.00 0.00 64 1010.1
20260504223552 79 173 4.0 12.0 0.00 0.00 0.00 65 1010.0
20260504223054 79 165 3.0 14.0 0.00 0.00 0.00 64 1010.1
20260504222554 79 204 5.0 14.0 0.00 0.00 0.00 64 1010.1
20260504222053 79 134 5.0 15.0 0.00 0.00 0.00 64 1010.1
20260504221641 79 271 4.0 17.0 0.00 0.00 0.00 64 1010.0
20260504221053 79 162 6.0 17.0 0.00 0.00 0.00 64 1010.2
20260504220552 79 211 3.0 11.0 0.00 0.00 0.00 64 1010.2
20260504220056 79 173 5.0 15.0 0.00 0.00 0.00 63 1010.0
20260504215554 79 184 5.0 15.0 0.00 0.00 0.00 64 1010.0
20260504215051 79 167 7.0 15.0 0.00 0.00 0.00 63 1010.0
20260504214556 79 164 5.0 14.0 0.00 0.00 0.00 64 1010.1
20260504214052 79 84 5.0 14.0 0.00 0.00 0.00 64 1010.2
20260504213554 79 213 4.0 11.0 0.00 0.00 0.00 64 1010.2
20260504213101 79 157 3.0 12.0 0.00 0.00 0.00 64 1010.3
20260504212554 79 202 5.0 13.0 0.00 0.00 0.00 64 1010.4
20260504212054 79 169 5.0 13.0 0.00 0.00 0.00 64 1010.6
20260504211556 79 128 6.0 15.0 0.00 0.00 0.00 65 1010.7
20260504211054 79 193 3.0 15.0 0.00 0.00 0.00 63 1010.9
20260504210555 79 149 5.0 14.0 0.00 0.00 0.00 64 1010.9
20260504210058 79 158 5.0 13.0 0.00 0.00 0.00 64 1011.0
20260504205553 79 163 4.0 15.0 0.00 0.00 0.00 64 1011.2
20260504205054 79 199 5.0 16.0 0.00 0.00 0.00 64 1011.1
20260504204556 79 228 4.0 16.0 0.00 0.00 0.00 64 1011.2
20260504204053 79 213 4.0 10.0 0.00 0.00 0.00 65 1011.3
20260504203556 79 215 3.0 12.0 0.00 0.00 0.00 65 1011.3
20260504203056 78 204 4.0 13.0 0.00 0.00 0.00 65 1011.3
20260504202551 79 190 5.0 13.0 0.00 0.00 0.00 64 1011.5
20260504202055 79 200 5.0 10.0 0.00 0.00 0.00 64 1011.5
20260504201554 79 201 3.0 12.0 0.00 0.00 0.00 65 1011.6
20260504201054 78 180 4.0 12.0 0.00 0.00 0.00 65 1011.6
20260504200555 78 153 3.0 10.0 0.00 0.00 0.00 66 1011.7
20260504200056 78 200 4.0 13.0 0.00 0.00 0.00 65 1011.8
20260504195555 78 194 4.0 15.0 0.00 0.00 0.00 65 1011.9
20260504195057 79 204 4.0 15.0 0.00 0.00 0.00 63 1011.9
20260504194602 79 202 4.0 16.0 0.00 0.00 0.00 64 1012.0
20260504194054 79 215 4.0 16.0 0.00 0.00 0.00 65 1011.8
20260504193554 78 175 5.0 12.0 0.00 0.00 0.00 65 1011.9
20260504193055 78 213 5.0 12.0 0.00 0.00 0.00 65 1012.0
20260504192554 78 172 3.0 12.0 0.00 0.00 0.00 65 1012.1
20260504192054 79 162 3.0 12.0 0.00 0.00 0.00 65 1012.2
20260504191615 79 136 3.0 10.0 0.00 0.00 0.00 63 1012.2
20260504191051 79 200 4.0 9.0 0.00 0.00 0.00 65 1012.3
20260504190554 78 171 4.0 16.0 0.00 0.00 0.00 64 1012.2
20260504190058 79 226 4.0 17.0 0.00 0.00 0.00 64 1012.3
20260504185555 79 246 5.0 17.0 0.00 0.00 0.00 63 1012.4
20260504185054 78 215 3.0 14.0 0.00 0.00 0.00 65 1012.3
20260504184603 78 148 2.0 11.0 0.00 0.00 0.00 64 1012.5
20260504184056 79 163 4.0 12.0 0.00 0.00 0.00 63 1012.4
20260504183555 79 253 6.0 12.0 0.00 0.00 0.00 63 1012.8
20260504183054 79 169 3.0 9.0 0.00 0.00 0.00 63 1012.9
20260504182557 79 127 4.0 13.0 0.00 0.00 0.00 63 1012.9
20260504182053 79 198 4.0 14.0 0.00 0.00 0.00 63 1012.9
20260504181555 79 195 7.0 14.0 0.00 0.00 0.00 63 1012.9
20260504181055 79 161 4.0 17.0 0.00 0.00 0.00 64 1013.0
20260504180556 79 223 6.0 17.0 0.00 0.00 0.00 63 1013.0
20260504180054 79 207 5.0 15.0 0.00 0.00 0.00 63 1013.1
20260504175553 79 169 6.0 15.0 0.00 0.00 0.00 63 1013.2
20260504175050 79 198 5.0 14.0 0.00 0.00 0.00 62 1013.1
20260504174553 78 205 4.0 14.0 0.00 0.00 0.00 65 1013.2
20260504174051 78 157 5.0 14.0 0.00 0.00 0.00 65 1013.3
20260504173558 78 223 6.0 16.0 0.00 0.00 0.00 65 1013.2
20260504173051 78 203 5.0 16.0 0.00 0.00 0.00 66 1013.3
20260504172553 78 191 6.0 13.0 0.00 0.00 0.00 64 1013.4
20260504172059 77 165 4.0 13.0 0.00 0.00 0.00 66 1013.6
20260504171553 77 120 4.0 17.0 0.00 0.00 0.00 66 1013.6
20260504171054 76 175 5.0 17.0 0.00 0.00 0.00 66 1013.7
20260504170554 76 194 6.0 15.0 0.00 0.00 0.00 67 1013.7
20260504151053 68 203 6.0 19.0 0.00 0.00 0.00 81 1014.7
20260504150553 68 171 6.0 19.0 0.00 0.00 0.00 81 1014.7
20260504141056 66 138 3.0 10.0 0.00 0.00 0.00 81 1014.6
20260504140553 66 163 3.0 10.0 0.00 0.00 0.00 82 1014.6
20260504140104 65 157 3.0 11.0 0.00 0.00 0.00 83 1014.5
20260504130550 63 167 0.0 5.0 0.00 0.00 0.00 84 1014.6
20260504110551 62 0 1.0 7.0 0.00 0.00 0.00 83 1014.2
20260504100554 62 167 1.0 5.0 0.00 0.00 0.00 82 1014.2
20260504081555 63 199 3.0 7.0 0.00 0.00 0.00 79 1015.0
20260504081053 63 209 2.0 5.0 0.00 0.00 0.00 79 1015.0
20260504080552 63 174 2.0 5.0 0.00 0.00 0.00 79 1015.1
20260504060107 65 157 1.0 9.0 0.00 0.00 0.00 73 1016.5
20260504050552 66 167 2.0 10.0 0.00 0.00 0.00 71 1016.7
20260504050123 66 198 2.0 8.0 0.00 0.00 0.00 70 1016.7
20260504045553 66 202 2.0 8.0 0.00 0.00 0.00 70 1016.7
20260504045053 66 130 2.0 9.0 0.00 0.00 0.00 69 1017.0
20260504044555 66 120 2.0 9.0 0.00 0.00 0.00 69 1017.0
20260504044053 66 125 3.0 9.0 0.00 0.00 0.00 68 1017.0
20260504043555 66 120 1.0 9.0 0.00 0.00 0.00 68 1016.8
20260504043101 66 150 2.0 9.0 0.00 0.00 0.00 67 1016.8
20260504042554 67 138 2.0 9.0 0.00 0.00 0.00 67 1017.0
20260504042056 67 163 2.0 7.0 0.00 0.00 0.00 67 1016.9
20260504041559 67 158 2.0 7.0 0.00 0.00 0.00 66 1016.9
20260504041050 67 155 2.0 7.0 0.00 0.00 0.00 66 1016.9
20260504040553 67 159 2.0 7.0 0.00 0.00 0.00 66 1017.1
20260504040113 67 155 2.0 7.0 0.00 0.00 0.00 65 1017.1
20260504035550 67 147 2.0 9.0 0.00 0.00 0.00 65 1017.1
20260504035052 67 169 2.0 9.0 0.00 0.00 0.00 65 1017.1
20260504034559 67 167 1.0 4.0 0.00 0.00 0.00 64 1017.0
20260504034052 68 143 1.0 4.0 0.00 0.00 0.00 64 1016.9
20260504033553 68 0 1.0 5.0 0.00 0.00 0.00 63 1017.0
20260504033059 68 157 1.0 6.0 0.00 0.00 0.00 63 1017.1
20260504032553 68 155 1.0 7.0 0.00 0.00 0.00 62 1017.1
20260504032053 68 142 1.0 7.0 0.00 0.00 0.00 62 1017.0
20260504031606 68 136 1.0 7.0 0.00 0.00 0.00 61 1016.8
20260504031050 68 143 2.0 7.0 0.00 0.00 0.00 60 1017.0
20260504030552 68 128 1.0 7.0 0.00 0.00 0.00 59 1016.9
20260504030112 68 170 1.0 10.0 0.00 0.00 0.00 58 1017.0
20260504025550 68 129 2.0 10.0 0.00 0.00 0.00 57 1017.0
20260504025050 68 148 0.0 5.0 0.00 0.00 0.00 56 1017.0
20260504024553 68 0 1.0 5.0 0.00 0.00 0.00 56 1016.9
20260504024052 68 161 1.0 4.0 0.00 0.00 0.00 55 1017.0
20260504023552 68 0 0.0 4.0 0.00 0.00 0.00 56 1016.9
20260504023055 68 0 0.0 4.0 0.00 0.00 0.00 55 1016.8
20260504022552 68 0 0.0 0.0 0.00 0.00 0.00 55 1016.9
20260504022052 68 0 0.0 0.0 0.00 0.00 0.00 55 1016.8
20260504021606 68 0 0.0 0.0 0.00 0.00 0.00 56 1016.9
20260504021054 68 0 0.0 0.0 0.00 0.00 0.00 56 1016.9
20260504020550 68 0 0.0 1.0 0.00 0.00 0.00 55 1016.8
20260504020054 69 0 0.0 1.0 0.00 0.00 0.00 54 1016.8
20260504015551 69 0 0.0 0.0 0.00 0.00 0.00 54 1016.8
20260504015051 69 0 0.0 1.0 0.00 0.00 0.00 54 1016.7
20260504014557 69 0 0.0 2.0 0.00 0.00 0.00 53 1016.7
20260504014052 70 0 0.0 2.0 0.00 0.00 0.00 52 1016.7
20260504013552 70 0 0.0 2.0 0.00 0.00 0.00 51 1016.5
20260504013052 71 0 0.0 2.0 0.00 0.00 0.00 50 1016.5
20260504012555 71 0 0.0 4.0 0.00 0.00 0.00 50 1016.3
20260504012052 71 162 0.0 4.0 0.00 0.00 0.00 49 1016.5
20260504011554 72 162 1.0 4.0 0.00 0.00 0.00 49 1016.5